Molokai, HI

9:19 PM HST on March 26, 2017 (GMT -1000)
Molokai

Weather History for PHMK - May, 2013

Change the Weather History Date:

Sunday, May 26, 2013

  Actual Average Record
Temperature  
Mean Temperature 76 °F -  
Max Temperature 80 °F 81 °F 86 °F (1986)
Min Temperature 71 °F 68 °F 64 °F (2015)
Cooling Degree Days 10    
Growing Degree Days 26 (Base 50)    
Moisture  
Dew Point 67 °F    
Average Humidity 78    
Maximum Humidity 87    
Minimum Humidity 69    
Precipitation  
Precipitation 0.00 in - - ()
Sea Level Pressure  
Sea Level Pressure 30.07 in    
Wind  
Wind Speed 15 mph (NE)    
Max Wind Speed 22 mph    
Max Gust Speed 33 mph    
Visibility 10 miles    
Events      
Averages and records for this station are not official NWS values.
T = Trace of Precipitation, MM = Missing Value Source: NWS Daily Summary

Daily Weather History Graph

Daily Weather History Graph

Search for Another Location

Airport or City:

Trip Planner

Search our weather history database for the weather conditions in past years. The results will help you decide how hot, cold, wet, or windy it might be!

Date:

Astronomy

May. 26, 2013 Rise Set
Actual Time 5:47 AM HST 7:04 PM HST
Civil Twilight 5:22 AM HST 7:28 PM HST
Nautical Twilight 4:53 AM HST 7:57 PM HST
Astronomical Twilight 4:23 AM HST 8:27 PM HST
Moon 9:05 PM HST (5/26) 7:26 AM HST (5/26)
Length of Visible Light 14h 05m
Length of Day
13h 17m
Waning Gibbous, 95% of the Moon is Illuminated
May 26
Waning Gibbous
May 31
Last Quarter
Jun 8
New
Jun 16
First Quarter
Jun 23
Full

Hourly Weather History & Observations

Time (HST) Temp. Heat Index Dew Point Humidity Pressure Visibility Wind Dir Wind Speed Gust Speed Precip Events Conditions
12:54 AM 72.0 °F - 66.0 °F 81% 30.09 in 10.0 mi NE 16.1 mph 24.2 mph N/A   Clear
1:54 AM 71.1 °F - 66.0 °F 84% 30.07 in 10.0 mi NE 15.0 mph 25.3 mph N/A   Clear
2:54 AM 71.1 °F - 66.0 °F 84% 30.06 in 10.0 mi NE 13.8 mph 23.0 mph N/A   Clear
3:54 AM 71.1 °F - 66.0 °F 84% 30.05 in 10.0 mi NE 16.1 mph 25.3 mph N/A   Clear
4:54 AM 71.1 °F - 66.0 °F 84% 30.06 in 10.0 mi NE 10.4 mph 21.9 mph N/A   Clear
5:54 AM 71.1 °F - 66.9 °F 87% 30.07 in 10.0 mi NNE 12.7 mph 20.7 mph N/A   Clear
6:54 AM 73.0 °F - 66.9 °F 81% 30.09 in 10.0 mi NE 12.7 mph 24.2 mph N/A   Clear
7:54 AM 75.0 °F - 68.0 °F 79% 30.09 in 10.0 mi NE 16.1 mph 31.1 mph N/A   Partly Cloudy
8:54 AM 77.0 °F - 69.1 °F 76% 30.10 in 10.0 mi NE 20.7 mph 26.5 mph N/A   Scattered Clouds
9:54 AM 78.1 °F - 68.0 °F 71% 30.09 in 10.0 mi NE 21.9 mph 29.9 mph N/A   Clear
10:54 AM 80.1 °F 82.9 °F 69.1 °F 69% 30.09 in 10.0 mi NE 18.4 mph 28.8 mph N/A   Partly Cloudy
11:54 AM 79.0 °F - 69.1 °F 72% 30.08 in 10.0 mi NE 18.4 mph 27.6 mph N/A   Scattered Clouds
12:54 PM 80.1 °F 82.9 °F 69.1 °F 69% 30.06 in 10.0 mi NE 16.1 mph 31.1 mph N/A   Scattered Clouds
1:54 PM 80.1 °F 82.9 °F 69.1 °F 69% 30.06 in 10.0 mi NE 16.1 mph 29.9 mph N/A   Partly Cloudy
2:54 PM 79.0 °F - 69.1 °F 72% 30.04 in 10.0 mi NE 16.1 mph 33.4 mph N/A   Partly Cloudy
3:54 PM 79.0 °F - 68.0 °F 69% 30.03 in 10.0 mi NNE 17.3 mph 27.6 mph N/A   Partly Cloudy
4:54 PM 78.1 °F - 68.0 °F 71% 30.03 in 10.0 mi NE 16.1 mph 26.5 mph N/A   Partly Cloudy
5:54 PM 75.9 °F - 66.9 °F 74% 30.04 in 10.0 mi NE 15.0 mph 26.5 mph N/A   Clear
6:54 PM 73.9 °F - 66.9 °F 79% 30.06 in 10.0 mi NE 18.4 mph 27.6 mph N/A   Clear
7:54 PM 73.0 °F - 66.9 °F 81% 30.08 in 10.0 mi NE 9.2 mph 24.2 mph N/A   Clear
8:54 PM 72.0 °F - 66.9 °F 84% 30.10 in 10.0 mi NE 18.4 mph 25.3 mph N/A   Clear
9:54 PM 72.0 °F - 64.9 °F 78% 30.12 in 10.0 mi ENE 13.8 mph 23.0 mph N/A   Clear
10:54 PM 72.0 °F - 66.0 °F 81% 30.12 in 10.0 mi NE 12.7 mph 18.4 mph N/A   Clear
11:54 PM 71.1 °F - 66.0 °F 84% 30.12 in 10.0 mi ENE 8.1 mph 18.4 mph N/A   Clear